Content
SEND FEEDBACK

Daily
Averages
Monthly
Summary
United States of America

ADRIAN, OREGON


Home > North America > United States > Oregon
Elevation: 3696 feet     Latitude: 43 22N     Longitude: 117 07W

WEATHER
 
SELECT A DAY
Number of Records: 430,588;   Date Range: 1/1/95 - 10/30/14
 
SHARE

PRINT THIS DATA

[ ← Previous Day ]
WEATHER ALMANAC - JANUARY 31, 2013
[ Next Day → ]
[ °C ]   °F
Weather ElementAverageHighLow
Temperature34.8 °F44.6 °F (2:35 pm)28.4 °F (2:35 am)
Dewpoint29.4 °F37.4 °F (3:35 pm)24.8 °F (12:35 am)
Humidity80.9 %87 % (4:55 am)70 % (5:15 pm)
Barometer30.31 in30.35 in (9:35 am)30.26 in (10:35 pm)
Wind Speed1.7 mph5.8 mph (3:15 pm)
Weather ElementAverage
Visibility9.3 mi
Wind DirectionENE (73.8 °)

Weather ElementTotal
Precipitation---
Heating Degree Days28.5 (Base 65)
Averaged from 61 records on January 31, 2013
WEATHER CONDITIONS BREAKOUT
WIND DIRECTION BREAKOUT
WEATHER BY HOUR - JANUARY 31, 2013
[ °C ]   °F
Local TimeTemperatureDewpointHumidityBarometerVisibilityWind DirectionWind SpeedGust SpeedPrecipitationEventsConditions
12:35 AM30.2 °F24.8 °F80 %30.32 in10.0 miSW (230°)3.5 mphClear
12:55 AM30.2 °F26.6 °F86 %30.32 in10.0 miWest (260°)3.5 mphClear
1:15 AM30.2 °F24.8 °F80 %30.32 in10.0 miCalmClear
1:35 AM30.2 °F26.6 °F86 %30.33 in10.0 miWNW (300°)3.5 mphClear
1:55 AM30.2 °F24.8 °F80 %30.33 in10.0 miWSW (250°)3.5 mphClear
2:15 AM30.2 °F26.6 °F86 %30.33 in10.0 miSW (220°)3.5 mphClear
2:35 AM28.4 °F24.8 °F86 %30.33 in10.0 miCalmScattered Clouds
2:55 AM30.2 °F24.8 °F80 %30.34 in10.0 miCalmMostly Cloudy
3:15 AM30.2 °F24.8 °F80 %30.34 in10.0 miCalmOvercast
3:35 AM30.2 °F26.6 °F86 %30.33 in10.0 miCalmOvercast
3:55 AM30.2 °F26.6 °F86 %30.33 in10.0 miCalmOvercast
4:15 AM30.2 °F26.6 °F86 %30.33 in10.0 miCalmOvercast
4:35 AM32.0 °F26.6 °F80 %30.33 in10.0 miCalmOvercast
4:55 AM32.0 °F28.4 °F87 %30.33 in10.0 miCalmOvercast
5:35 AM30.2 °F26.6 °F86 %30.34 in10.0 miEast (80°)3.5 mphOvercast
5:55 AM30.2 °F26.6 °F86 %30.32 in10.0 miEast (90°)4.6 mphMostly Cloudy
6:15 AM30.2 °F26.6 °F86 %30.33 in10.0 miEast (90°)3.5 mphOvercast
6:35 AM30.2 °F26.6 °F86 %30.33 in3.0 miEast (90°)3.5 mphOvercast
6:55 AM30.2 °F24.8 °F80 %30.33 in10.0 miENE (70°)3.5 mphOvercast
7:15 AM30.2 °F26.6 °F86 %30.33 in9.0 miCalmOvercast
7:35 AM30.2 °F26.6 °F86 %30.33 in10.0 miCalmOvercast
7:55 AM30.2 °F26.6 °F86 %30.34 in10.0 miCalmOvercast
8:15 AM30.2 °F26.6 °F86 %30.34 in5.0 miCalmOvercast
8:35 AM30.2 °F26.6 °F86 %30.34 in7.0 miCalmOvercast
8:55 AM32.0 °F26.6 °F80 %30.34 in10.0 miEast (80°)3.5 mphOvercast
9:15 AM32.0 °F28.4 °F87 %30.34 in5.0 miEast (80°)3.5 mphOvercast
9:35 AM33.8 °F28.4 °F81 %30.35 in10.0 miENE (60°)4.6 mphOvercast
9:55 AM33.8 °F28.4 °F81 %30.35 in10.0 miEast (80°)3.5 mphOvercast
10:15 AM33.8 °F28.4 °F81 %30.35 in10.0 miCalmOvercast
10:35 AM33.8 °F30.2 °F87 %30.35 in10.0 miCalmOvercast
10:55 AM35.6 °F30.2 °F81 %30.35 in10.0 miCalmOvercast
11:15 AM35.6 °F30.2 °F81 %30.35 in10.0 miCalmOvercast
11:35 AM35.6 °F30.2 °F81 %30.35 in10.0 miCalmOvercast
11:55 AM35.6 °F30.2 °F81 %30.35 in10.0 miCalmOvercast
12:35 PM37.4 °F30.2 °F75 %30.34 in10.0 miCalmOvercast
12:55 PM37.4 °F32.0 °F81 %30.33 in10.0 miCalmOvercast
1:15 PM39.2 °F33.8 °F81 %30.33 in10.0 miCalmOvercast
1:35 PM41.0 °F33.8 °F76 %30.32 in10.0 miNNE (30°)3.5 mphOvercast
1:55 PM42.8 °F35.6 °F76 %30.32 in10.0 miNNE (20°)4.6 mphOvercast
2:15 PM42.8 °F35.6 °F76 %30.32 in10.0 miNorth (360°)3.5 mphOvercast
2:35 PM44.6 °F35.6 °F71 %30.30 in10.0 miENE (60°)3.5 mphOvercast
3:15 PM44.6 °F35.6 °F71 %30.29 in10.0 miNE (50°)5.8 mphClear
3:35 PM44.6 °F37.4 °F76 %30.28 in10.0 miNE (50°)5.8 mphClear
3:55 PM42.8 °F35.6 °F76 %30.28 in10.0 miCalmClear
4:15 PM44.6 °F35.6 °F71 %30.28 in10.0 miSouth (180°)3.5 mphClear
4:35 PM44.6 °F35.6 °F71 %30.28 in10.0 miCalmClear
5:15 PM42.8 °F33.8 °F70 %30.28 in10.0 miWest (270°)3.5 mphClear
5:35 PM42.8 °F33.8 °F70 %30.28 in10.0 miCalmClear
6:15 PM39.2 °F33.8 °F81 %30.28 in10.0 miNNW (340°)3.5 mphScattered Clouds
6:35 PM37.4 °F30.2 °F75 %30.28 in10.0 miNNW (330°)4.6 mphOvercast
6:55 PM39.2 °F32.0 °F75 %30.28 in10.0 miWNW (300°)4.6 mphMostly Cloudy
7:35 PM37.4 °F32.0 °F81 %30.27 in10.0 miCalmMostly Cloudy
8:15 PM37.4 °F32.0 °F81 %30.28 in10.0 miCalmOvercast
8:35 PM35.6 °F32.0 °F87 %30.28 in10.0 miCalmOvercast
9:15 PM35.6 °F30.2 °F81 %30.27 in10.0 miCalmClear
9:35 PM35.6 °F30.2 °F81 %30.27 in10.0 miCalmPartly Cloudy
9:55 PM33.8 °F28.4 °F81 %30.27 in9.0 miWSW (240°)3.5 mphScattered Clouds
10:15 PM33.8 °F28.4 °F81 %30.27 in7.0 miWNW (290°)3.5 mphMostly Cloudy
10:35 PM33.8 °F28.4 °F81 %30.26 in5.0 miCalmMostly Cloudy
11:15 PM32.0 °F28.4 °F87 %30.28 in3.0 miCalmMostly Cloudy
11:35 PM32.0 °F26.6 °F80 %30.27 in3.0 miCalmOvercast
Hourly data recorded from KEUL, located miles away from Adrian, Oregon







STORIES FROM OUR PARTNERS